N513LW KFLL-KPBI

Flight info

Callsign N513LW
Flight time 0h 14m
Altitude VFR/025
Route
Aircraft BE58/L-DOV/C

Departure

Time 2026-05-03 20:16
Airport Fort Lauderdale Hollywood International Airport (KFLL)

Arrival

Time 2026-05-03 20:31
Airport Palm Beach International Airport (KPBI)
Time Latitude Longitude Altitude Speed Heading
2026-05-03 20:15 26.06693 -80.15183 15 ft 5 kts 238°
2026-05-03 20:15 26.06638 -80.15205 16 ft 13 kts 159°
2026-05-03 20:15 26.06592 -80.15132 15 ft 10 kts 109°
2026-05-03 20:15 26.06585 -80.15082 14 ft 0 kts 91°
2026-05-03 20:16 26.06585 -80.14893 13 ft 71 kts 90°
2026-05-03 20:16 26.06582 -80.14121 215 ft 117 kts 90°
2026-05-03 20:16 26.06548 -80.13145 610 ft 140 kts 88°
2026-05-03 20:17 26.06545 -80.11978 927 ft 161 kts 89°
2026-05-03 20:17 26.06542 -80.10680 1239 ft 173 kts 88°
2026-05-03 20:17 26.06537 -80.09323 1552 ft 177 kts 89°
2026-05-03 20:17 26.06531 -80.07939 1851 ft 180 kts 88°
2026-05-03 20:18 26.06528 -80.06549 2022 ft 188 kts 89°
2026-05-03 20:18 26.06855 -80.05126 2022 ft 196 kts 55°
2026-05-03 20:18 26.07918 -80.04215 2034 ft 198 kts 16°
2026-05-03 20:18 26.09288 -80.04029 2035 ft 201 kts 355°
2026-05-03 20:19 26.10703 -80.04147 2035 ft 207 kts 352°
2026-05-03 20:19 26.12138 -80.04305 2039 ft 208 kts 352°
2026-05-03 20:19 26.13594 -80.04465 2037 ft 213 kts 352°
2026-05-03 20:19 26.15097 -80.04622 2042 ft 222 kts 353°
2026-05-03 20:20 26.16642 -80.04813 2037 ft 225 kts 352°
2026-05-03 20:20 26.18201 -80.05054 2032 ft 223 kts 346°
2026-05-03 20:20 26.19680 -80.05525 2030 ft 220 kts 340°
2026-05-03 20:20 26.21104 -80.06066 2034 ft 218 kts 338°
2026-05-03 20:21 26.22546 -80.06638 2046 ft 222 kts 340°
2026-05-03 20:21 26.24001 -80.07273 2044 ft 225 kts 338°
2026-05-03 20:21 26.25443 -80.07953 2046 ft 225 kts 338°
2026-05-03 20:21 26.26877 -80.08632 2040 ft 223 kts 337°
2026-05-03 20:22 26.28308 -80.09296 2046 ft 224 kts 338°
2026-05-03 20:22 26.29766 -80.09949 2036 ft 226 kts 339°
2026-05-03 20:22 26.31203 -80.10632 2034 ft 222 kts 337°
2026-05-03 20:22 26.32633 -80.11275 2045 ft 222 kts 342°
2026-05-03 20:23 26.34116 -80.11657 2041 ft 220 kts 350°
2026-05-03 20:23 26.35623 -80.11953 2035 ft 219 kts 350°
2026-05-03 20:23 26.37124 -80.12241 2035 ft 219 kts 351°
2026-05-03 20:23 26.38618 -80.12521 2047 ft 217 kts 350°
2026-05-03 20:24 26.40118 -80.12779 2055 ft 220 kts 351°
2026-05-03 20:24 26.41652 -80.13045 2013 ft 226 kts 350°
2026-05-03 20:24 26.43207 -80.13334 1995 ft 225 kts 351°
2026-05-03 20:24 26.44721 -80.13631 1998 ft 215 kts 350°
2026-05-03 20:25 26.46179 -80.13901 1993 ft 210 kts 351°
2026-05-03 20:25 26.47616 -80.14162 1996 ft 206 kts 351°
2026-05-03 20:25 26.49015 -80.14423 1993 ft 201 kts 351°
2026-05-03 20:25 26.50371 -80.14678 2002 ft 197 kts 351°
2026-05-03 20:26 26.51719 -80.14926 2000 ft 196 kts 351°
2026-05-03 20:26 26.53060 -80.15168 2004 ft 195 kts 351°
2026-05-03 20:26 26.54395 -80.15426 2007 ft 195 kts 351°
2026-05-03 20:26 26.55728 -80.15698 2017 ft 197 kts 350°
2026-05-03 20:27 26.57095 -80.15973 2024 ft 203 kts 347°
2026-05-03 20:27 26.58465 -80.16471 2019 ft 210 kts 341°
2026-05-03 20:27 26.59886 -80.16977 1692 ft 216 kts 348°
2026-05-03 20:27 26.61328 -80.17396 1635 ft 212 kts 349°
2026-05-03 20:28 26.62735 -80.17657 1868 ft 199 kts 354°
2026-05-03 20:28 26.64112 -80.17865 1827 ft 200 kts 358°
2026-05-03 20:28 26.65515 -80.17897 1601 ft 205 kts 358°
2026-05-03 20:28 26.66914 -80.17975 1737 ft 185 kts
2026-05-03 20:29 26.68007 -80.17367 1818 ft 189 kts 43°
2026-05-03 20:29 26.68952 -80.16297 1481 ft 204 kts 46°
2026-05-03 20:29 26.69058 -80.14788 1153 ft 187 kts 105°
2026-05-03 20:29 26.68561 -80.13780 722 ft 122 kts 117°
2026-05-03 20:30 26.68255 -80.12956 441 ft 111 kts 100°
2026-05-03 20:30 26.68177 -80.12155 336 ft 99 kts 88°
2026-05-03 20:30 26.68145 -80.11415 184 ft 94 kts 87°
2026-05-03 20:30 26.68117 -80.10720 47 ft 80 kts 85°
2026-05-03 20:31 26.68105 -80.10241 27 ft 35 kts 95°
2026-05-03 20:31 26.68076 -80.10140 23 ft 8 kts 185°
2026-05-03 20:31 26.68066 -80.10140 23 ft 0 kts 171°
2026-05-03 20:31 26.68030 -80.10137 23 ft 11 kts 180°
2026-05-03 20:32 26.67989 -80.10129 23 ft 0 kts 93°